Location: Carnières
(50.1682°N, 3.3474°E)
Time: 05:09:06
(UTC+00:00)

SL-16 R/B - Pass Details

Date: 13 August 2024
Orbit: 842 x 845 km, 71.0° (Epoch: 16 September)

Event Time Altitude Azimuth Distance (km) Brightness Sun altitude
Exits shadow 22:17:49 25° 95° (E) 1,644 3.4 -22.3°
Drops below altitude 10° 22:21:52 10° 50° (NE) 2,473 4.8 -22.6°
Sets 22:24:42 0° 37° (NE) 3,414 5.8 -22.8°
